Hourly Data Report for July 25, 2016

OTTAWA INTL A
ONTARIO

45°19'00.000" N
75°40'00.000" W
114.90 m
6106001
71628
YOW

Download Data

Hourly Data (July 2016)
Hourly Data Report for July 25, 2016
TIME
LST
Temp Definition
°C
Dew Point Definition
°C
Rel Hum Definition
%
Precip. Amount Definition
mm

Wind Dir Definition
10's deg

Wind Spd Definition
km/h
Visibility Definition
km
Stn Press Definition
kPa
Hmdx Definition


Wind Chill Definition


Weather Definition


00:00 19.2 14.1 72   10 10 24.1 99.97     LegendNANA
01:00 19.0 14.3 74   14 12 24.1 99.91     Mainly Clear
02:00 19.3 14.6 74   13 11 24.1 99.89     LegendNANA
03:00 19.7 14.6 72   11 9 24.1 99.83     LegendNANA
04:00 19.7 14.8 73   10 8 24.1 99.81     Cloudy
05:00 18.5 14.8 79   11 10 24.1 99.76     LegendNANA
06:00 19.2 15.1 77   6 3 24.1 99.79     LegendNANA
07:00 17.8 17.0 95   11 9 24.1 99.69     Thunderstorms,Rain Showers
08:00 19.2 17.7 91   15 11 24.1 99.66     Rain
09:00 20.6 18.0 85   16 12 24.1 99.62 27   LegendNANA
10:00 22.0 19.8 87   14 14 24.1 99.54 29   Cloudy
11:00 22.9 20.8 88   18 11 24.1 99.52 31   LegendNANA
12:00 25.3 21.9 81   21 13 24.1 99.46 35   LegendNANA
13:00 25.4 21.4 78   21 20 24.1 99.36 34   Cloudy
14:00 25.5 21.5 78   22 22 24.1 99.35 34   LegendNANA
15:00 26.5 22.0 76   23 22 24.1 99.36 36   LegendNANA
16:00 27.4 22.2 73   22 21 24.1 99.30 37   Mostly Cloudy
17:00 26.4 22.3 78   17 16 24.1 99.22 36   LegendNANA
18:00 26.3 20.3 69   21 13 24.1 99.22 34   LegendNANA
19:00 23.5 19.3 77   10 10 24.1 99.28 31   Mainly Clear
20:00 22.5 20.3 87   15 12 24.1 99.36 30   LegendNANA
21:00 22.1 20.2 89   20 11 24.1 99.39 30   LegendNANA
22:00 22.2 17.0 72   25 14 24.1 99.42 27   Mainly Clear
23:00 23.0 15.7 63   26 16 24.1 99.44 27   LegendNANA

Notes on Data Quality.

Legend

  • E = Estimated
  • M = Missing
  • NA = Not Available*
  • [empty] = Indicates an unobserved value
Date modified: